Location: Düngen
(52.0952°N, 10.0219°E)
Time: 08:28:52
(UTC+00:00)

Cosmos 2266 Rocket - Visible Passes

Search period start: 09 June 2026 00:00
Search period end: 19 June 2026 00:00
Orbit: 933 x 1007 km, 82.9° (Epoch: 8 June)

Date Brightness Start Highest point End Pass type
(mag) Time Alt. Az. Time Alt. Az. Time Alt. Az.
9 Jun 4.5 20:17:39 10° NNW 20:23:46 63° W 20:29:56 10° S visible
9 Jun 6.5 22:05:26 10° NW 22:07:47 12° WNW 22:10:09 10° W visible
10 Jun 5.3 20:41:37 10° NNW 20:47:18 39° W 20:53:03 10° SSW visible
11 Jun 6.0 21:05:49 10° NNW 21:10:43 25° W 21:15:40 10° SW visible
12 Jun 6.4 21:30:30 10° NW 21:33:58 16° WNW 21:37:29 10° WSW visible
14 Jun 5.8 20:31:28 10° NNW 20:36:48 31° W 20:42:12 10° SW visible
15 Jun 6.4 20:55:53 10° NW 21:00:08 19° WNW 21:04:25 10° WSW visible
16 Jun 6.7 21:21:16 10° NW 21:23:18 12° WNW 21:25:22 10° W visible
